Hourly Data Report for January 30, 2019

TORONTO CITY
ONTARIO
Current Station Operator: ECCC - MSC

43°40'00.000" N
79°24'00.000" W
112.50 m
6158355
71508
XTO

Download Data

Hourly Data (January 2019)
Hourly Data Report for January 30, 2019
TIME
LST
Temp Definition
°C
Dew Point Definition
°C
Rel Hum Definition
%
Precip. Amount Definition
mm

Wind Dir Definition
10's deg

Wind Spd Definition
km/h
Visibility Definition
km
Stn Press Definition
kPa
Hmdx Definition


Wind Chill Definition


Weather Definition


00:00 -13.4 -20.9 53 0.0 LegendMM LegendMM   99.72     LegendNANA
01:00 -14.1 -21.6 53 0.0 LegendMM LegendMM   99.70     LegendNANA
02:00 -14.6 -21.0 58 0.0 LegendMM LegendMM   99.67     LegendNANA
03:00 -15.0 -21.2 59 0.0 LegendMM LegendMM   99.67     LegendNANA
04:00 -15.4 -21.9 58 0.0 LegendMM LegendMM   99.59     LegendNANA
05:00 -16.2 -22.6 58 0.0 LegendMM LegendMM   99.54     LegendNANA
06:00 -16.6 -22.7 59 0.0 LegendMM LegendMM   99.47     LegendNANA
07:00 -17.1 -23.2 59 0.0 LegendMM LegendMM   99.50     LegendNANA
08:00 -17.6 -23.3 61 0.0 LegendMM LegendMM   99.53     LegendNANA
09:00 -17.1 -23.4 58 0.0 LegendMM LegendMM   99.58     LegendNANA
10:00 -16.1 -23.5 53 0.2 LegendMM LegendMM   99.62     LegendNANA
11:00 -15.8 -22.0 59 0.0 LegendMM LegendMM   99.71     LegendNANA
12:00 -15.9 -22.8 56 0.0 LegendMM LegendMM   99.77     LegendNANA
13:00 -15.1 -23.9 47 0.0 LegendMM LegendMM   99.82     LegendNANA
14:00 -15.6 -25.1 44 0.0 LegendMM LegendMM   99.91     LegendNANA
15:00 -16.2 -25.5 44 0.0 LegendMM LegendMM   100.00     LegendNANA
16:00 -16.4 -25.6 45 0.0 LegendMM LegendMM   100.10     LegendNANA
17:00 -16.9 -24.6 51 0.0 LegendMM LegendMM   100.18     LegendNANA
18:00 -17.5 -23.6 59 0.0 LegendMM LegendMM   100.26     LegendNANA
19:00 -18.2 -23.8 61 0.0 LegendMM LegendMM   100.33     LegendNANA
20:00 -19.2 -25.6 57 0.0 LegendMM LegendMM   100.40     LegendNANA
21:00 -19.7 -26.4 55 0.0 LegendMM LegendMM   100.44     LegendNANA
22:00 -19.8 -26.7 54 0.0 LegendMM LegendMM   100.43     LegendNANA
23:00 -20.4 -27.4 54 0.0 LegendMM LegendMM   100.42     LegendNANA

Notes on Data Quality.

Legend

  • E = Estimated
  • M = Missing
  • NA = Not Available*
  • [empty] = Indicates an unobserved value
Date modified: